This is the latest recevied weather packets stored in our database for station/object W4MJZ-1. If no packets are shown the sender has not sent any weather packets the latest 10 day(s).
| Time | Temp. | Humidity | Pressure | Rain* | Wind** | Luminosity | Snow |
|---|---|---|---|---|---|---|---|
| 1777516102 | 22.78° C | 15% | 1020.7 hPa | 0 mm | - | - | - |
| 1777516039 | 23.89° C | 14% | 1020.3 hPa | 0 mm | - | - | - |
| 1777515764 | 23.33° C | 15% | 1020.3 hPa | 0 mm | - | - | - |
| 1777515740 | 22.78° C | 15% | 1020.7 hPa | 0 mm | - | - | - |
| 1777515441 | 23.33° C | 15% | 1020.3 hPa | 0 mm | - | - | - |
| 1777515438 | 23.33° C | 15% | 1020.7 hPa | 0 mm | - | - | - |
| 1777515139 | 23.33° C | 15% | 1020.7 hPa | 0 mm | - | - | - |
| 1777514839 | 23.33° C | 15% | 1020.7 hPa | 0 mm | - | - | - |
| 1777514791 | 23.33° C | 15% | 1020.3 hPa | 0 mm | - | - | - |
| 1777514558 | 23.89° C | 15% | 1020.3 hPa | 0 mm | - | - | - |
| 1777514539 | 23.33° C | 15% | 1020.3 hPa | 0 mm | - | - | - |
| 1777514239 | 23.89° C | 15% | 1020.3 hPa | 0 mm | - | - | - |
| 1777514233 | 24.44° C | 14% | 1020.3 hPa | 0 mm | - | - | - |
| 1777513940 | 24.44° C | 14% | 1020.3 hPa | 0 mm | - | - | - |
| 1777513640 | 24.44° C | 14% | 1020.3 hPa | 0 mm | - | - | - |
| 1777513627 | 24.44° C | 14% | 1020.3 hPa | 0 mm | - | - | - |
| 1777513346 | 25° C | 13% | 1020 hPa | 0 mm | - | - | - |
| 1777513339 | 24.44° C | 14% | 1020.3 hPa | 0 mm | - | - | - |
| 1777513041 | 25° C | 13% | 1020 hPa | 0 mm | - | - | - |
| 1777513022 | 25° C | 13% | 1020.3 hPa | 0 mm | - | - | - |
| 1777512739 | 25° C | 13% | 1020.3 hPa | 0 mm | - | - | - |
| 1777512439 | 25.56° C | 13% | 1020.3 hPa | 0 mm | - | - | - |
| 1777512139 | 25.56° C | 13% | 1020.3 hPa | 0 mm | - | - | - |
| 1777512124 | 25.56° C | 13% | 1019.6 hPa | 0 mm | - | - | - |
| 1777511840 | 25.56° C | 13% | 1019.6 hPa | 0 mm | - | - | - |
* Rain latest hour (hover to see other rain measurements)
** Current wind speed in m/s (hover to see current wind gust speed)